Los Angeles Downtown, CA

5:39 PM PDT on July 26, 2017 (GMT -0700)
Los Angeles Downtown

Weather History for KCQT - November, 2013

Change the Weather History Date:

Monday, November 18, 2013

  Actual Average Record
Temperature  
Mean Temperature 61 °F 62 °F  
Max Temperature 68 °F 72 °F 94 °F (1895)
Min Temperature 53 °F 51 °F 34 °F (1881)
Degree Days  
Heating Degree Days 4 4  
Month to date heating degree days 11 50  
Since 1 July heating degree days 35 70  
Cooling Degree Days 0 1  
Month to date cooling degree days 45 28  
Year to date cooling degree days 1209 1235  
Growing Degree Days 10 (Base 50)    
Moisture  
Dew Point 52 °F    
Average Humidity 74    
Maximum Humidity 89    
Minimum Humidity 58    
Precipitation  
Precipitation 0.00 in 0.03 in 1.50 in (1913)
Month to date precipitation T 0.54  
Year to date precipitation 2.78 12.10  
Since 1 July precipitation 0.15  
Sea Level Pressure  
Sea Level Pressure 30.10 in    
Wind  
Wind Speed 1 mph (West)    
Max Wind Speed 7 mph    
Max Gust Speed 14 mph    
Visibility 8 miles    
Events      
T = Trace of Precipitation, MM = Missing Value Source: NWS Daily Summary

Daily Weather History Graph

Daily Weather History Graph

Search for Another Location

Airport or City:

Trip Planner

Search our weather history database for the weather conditions in past years. The results will help you decide how hot, cold, wet, or windy it might be!

Date:

Astronomy

Nov. 18, 2013 Rise Set
Actual Time 6:28 AM PST 4:47 PM PST
Civil Twilight 6:01 AM PST 5:14 PM PST
Nautical Twilight 5:31 AM PST 5:44 PM PST
Astronomical Twilight 5:01 AM PST 6:14 PM PST
Moon 5:54 PM PST (11/18) 7:20 AM PST (11/18)
Length of Visible Light 11h 12m
Length of Day
10h 18m
Full, 99% of the Moon is Illuminated
Nov 18
Full
Nov 25
Last Quarter
Dec 2
New
Dec 9
First Quarter
Dec 17
Full

Hourly Weather History & Observations

Time (PST) Temp. Dew Point Humidity Pressure Visibility Wind Dir Wind Speed Gust Speed Precip Events Conditions
12:47 AM 55.0 °F 52.0 °F 89% 30.08 in 8.0 mi Calm Calm - N/A   Clear
1:47 AM 55.0 °F 51.1 °F 86% 30.07 in 8.0 mi Calm Calm - N/A   Clear
2:47 AM 54.0 °F 50.0 °F 86% 30.07 in 9.0 mi Calm Calm - N/A   Clear
3:11 AM 53.6 °F 51.8 °F 94% 30.07 in 7.0 mi Calm Calm - N/A   Mostly Cloudy
3:47 AM 54.0 °F 50.0 °F 86% 30.08 in 9.0 mi Calm Calm - N/A   Overcast
4:47 AM 55.0 °F 50.0 °F 83% 30.09 in 10.0 mi Calm Calm - N/A   Overcast
5:06 AM 55.4 °F 50.0 °F 82% 30.09 in 9.0 mi Calm Calm - N/A   Scattered Clouds
5:44 AM 53.6 °F 48.2 °F 82% 30.11 in 9.0 mi Calm Calm - N/A   Mostly Cloudy
5:47 AM 53.1 °F 48.9 °F 86% 30.11 in 9.0 mi Calm Calm - N/A   Mostly Cloudy
6:47 AM 55.0 °F 48.9 °F 80% 30.12 in 8.0 mi Calm Calm - N/A   Overcast
7:22 AM 57.2 °F 50.0 °F 77% 30.13 in 7.0 mi Calm Calm - N/A   Scattered Clouds
7:43 AM 57.2 °F 51.8 °F 82% 30.14 in 7.0 mi Calm Calm - N/A   Mostly Cloudy
7:47 AM 57.0 °F 51.1 °F 81% 30.14 in 7.0 mi Calm Calm - N/A   Mostly Cloudy
8:47 AM 59.0 °F 51.1 °F 75% 30.15 in 6.0 mi Calm Calm - N/A   Haze
9:10 AM 60.8 °F 53.6 °F 77% 30.15 in 6.0 mi Calm Calm - N/A   Haze
9:17 AM 62.6 °F 53.6 °F 72% 30.15 in 6.0 mi Calm Calm - N/A   Haze
9:21 AM 62.6 °F 53.6 °F 72% 30.15 in 6.0 mi Calm Calm - N/A   Haze
9:25 AM 62.6 °F 53.6 °F 72% 30.15 in 6.0 mi Calm Calm - N/A   Haze
9:47 AM 63.0 °F 53.1 °F 70% 30.14 in 7.0 mi Calm Calm - N/A   Partly Cloudy
10:20 AM 64.4 °F 53.6 °F 68% 30.14 in 7.0 mi West 4.6 mph - N/A   Mostly Cloudy
10:47 AM 64.0 °F 52.0 °F 65% 30.13 in 6.0 mi West 3.5 mph - N/A   Haze
10:57 AM 64.4 °F 51.8 °F 64% 30.13 in 6.0 mi Calm Calm - N/A   Haze
11:47 AM 66.9 °F 52.0 °F 59% 30.10 in 10.0 mi Calm Calm - N/A   Mostly Cloudy
12:47 PM 66.9 °F 52.0 °F 59% 30.08 in 10.0 mi Calm Calm - N/A   Mostly Cloudy
1:47 PM 66.9 °F 52.0 °F 59% 30.06 in 10.0 mi West 4.6 mph - N/A   Clear
2:47 PM 66.0 °F 53.1 °F 63% 30.06 in 10.0 mi Variable 3.5 mph - N/A   Clear
3:47 PM 64.0 °F 53.1 °F 67% 30.05 in 10.0 mi Calm Calm - N/A   Clear
4:47 PM 62.1 °F 52.0 °F 70% 30.05 in 10.0 mi West 5.8 mph - N/A   Clear
5:47 PM 61.0 °F 52.0 °F 72% 30.07 in 10.0 mi Variable 4.6 mph - N/A   Clear
6:47 PM 60.1 °F 52.0 °F 75% 30.07 in 10.0 mi Calm Calm - N/A   Clear
7:47 PM 60.1 °F 53.1 °F 78% 30.09 in 10.0 mi Variable 3.5 mph - N/A   Overcast
8:47 PM 60.1 °F 52.0 °F 75% 30.09 in 10.0 mi Calm Calm - N/A   Overcast
9:47 PM 60.1 °F 52.0 °F 75% 30.10 in 10.0 mi Calm Calm - N/A   Overcast
10:47 PM 60.1 °F 51.1 °F 72% 30.09 in 10.0 mi Calm Calm - N/A   Overcast
11:47 PM 59.0 °F 51.1 °F 75% 30.08 in 10.0 mi Calm Calm - N/A   Overcast